|
NORAD ID: 19178 Int'l Code: 1978-100U
Perigee: 1,590.6 km
Apogee: 1,659.7 km
Inclination: 82.1 °
Period: 118.6 minutes
Semi major axis: 7996 km
Launch date: October 26, 1978
Source: Commonwealth of Independent States (former USSR) (CIS)
Note: This is SATELLITE DEBRIS
Two Line Element Set (TLE):
1 19178U 78100U 13169.83372229 .00000172 00000-0 10000-3 0 9666
2 19178 082.1232 123.9625 0043216 044.1905 316.2975 12.14180422109786
Source:
NASA's NSSDC Master Catalog entry for SL-14 DEB
|